Location: Quedlinburg
(51.7921°N, 11.1414°E)
Time: 13:28:15
(UTC+02:00)

RS-15 - Pass Details

Date: 14 March 2026
Orbit: 1893 x 2152 km, 64.8° (Epoch: 22 April)

Event Time Altitude Azimuth Distance (km) Brightness Sun altitude
Rises 21:15:16 0° 217° (SW) 5,264 10.3 -26.8°
Reaches altitude 10° 21:18:27 10° 217° (SW) 4,271 9.8 -27.2°
Maximum altitude 21:29:22 87° 130° (SE) 1,929 7.8 -28.5°
Drops below altitude 10° 21:40:42 10° 43° (NE) 4,417 9.8 -29.9°
Sets 21:44:04 0° 44° (NE) 5,451 10.4 -30.2°
